SR9WXY Weather Reports


time (UTC)temp
C
wind
direction
speed
KPH
gust
KPH
rain 1hr
cm
rain 24hr
cm
rain mn
cm
humidity
%
barometer
mb
20260506205641 10 0 0.0 0.0 0.00 0.00 0.00 69 874.8
20260506205141 10 0 0.0 0.0 0.00 0.00 0.00 69 874.9
20260506204640 10 0 0.0 0.0 0.00 0.00 0.00 69 875.0
20260506204140 10 0 0.0 0.0 0.00 0.00 0.00 69 874.9
20260506203640 10 0 0.0 0.0 0.00 0.00 0.00 69 874.8
20260506203140 10 0 0.0 0.0 0.00 0.00 0.00 68 874.7
20260506202641 10 0 0.0 0.0 0.00 0.00 0.00 68 874.6
20260506202141 10 0 0.0 0.0 0.00 0.00 0.00 68 874.8
20260506201640 10 0 0.0 0.0 0.00 0.00 0.00 68 874.8
20260506201140 11 0 0.0 0.0 0.00 0.00 0.00 67 874.8
20260506200640 11 0 0.0 0.0 0.00 0.00 0.00 67 874.9
20260506200141 11 0 0.0 0.0 0.00 0.00 0.00 67 874.9
20260506195641 11 0 0.0 0.0 0.00 0.00 0.00 67 875.0
20260506195138 11 0 0.0 0.0 0.00 0.00 0.00 67 875.0
20260506194638 11 0 0.0 0.0 0.00 0.00 0.00 67 875.0
20260506194138 11 0 0.0 0.0 0.00 0.00 0.00 67 875.1
20260506193638 11 354 6.4 48.3 0.00 0.00 0.00 67 875.0
20260506193129 11 0 0.0 0.0 0.00 0.00 0.00 67 875.0
20260506192627 11 0 0.0 0.0 0.00 0.00 0.00 67 875.0
20260506192127 11 0 0.0 0.0 0.00 0.00 0.00 66 874.9
20260506191627 11 0 0.0 0.0 0.00 0.00 0.00 66 875.1
20260506191127 11 0 0.0 0.0 0.00 0.00 0.00 66 875.1
20260506190627 11 1 9.7 78.9 0.00 0.00 0.00 66 875.1
20260506190127 11 0 0.0 16.1 0.00 0.00 0.00 66 875.1
20260506185627 11 0 0.0 0.0 0.00 0.00 0.00 66 875.2
20260506185127 11 1 4.8 32.2 0.00 0.00 0.00 66 875.3
20260506184627 11 0 0.0 0.0 0.00 0.00 0.00 66 875.3
20260506184127 11 0 0.0 0.0 0.00 0.00 0.00 66 875.4
20260506183627 11 0 0.0 0.0 0.00 0.00 0.00 66 875.4
20260506183127 11 0 0.0 0.0 0.00 0.00 0.00 65 875.3
20260506182627 11 0 0.0 0.0 0.00 0.00 0.00 65 875.3
20260506182127 11 0 0.0 0.0 0.00 0.00 0.00 65 875.4
20260506181627 11 0 0.0 0.0 0.00 0.00 0.00 65 875.4
20260506181127 11 0 0.0 0.0 0.00 0.00 0.00 65 875.5
20260506180627 11 0 0.0 0.0 0.00 0.00 0.00 65 875.5
20260506180125 11 0 0.0 0.0 0.00 0.00 0.00 64 875.5
20260506175625 11 0 0.0 0.0 0.00 0.00 0.00 64 875.5
20260506175125 11 0 0.0 11.3 0.00 0.00 0.00 64 875.6
20260506174625 11 0 0.0 0.0 0.00 0.00 0.00 64 875.7
20260506174126 11 0 0.0 0.0 0.00 0.00 0.00 64 875.5
20260506173623 11 0 0.0 0.0 0.00 0.00 0.00 63 875.5
20260506173123 12 0 0.0 0.0 0.00 0.00 0.00 63 875.7
20260506172623 12 0 0.0 0.0 0.00 0.00 0.00 63 875.8
20260506172123 12 0 0.0 0.0 0.00 0.00 0.00 63 875.8
20260506171624 12 0 0.0 0.0 0.00 0.00 0.00 63 875.9
20260506171124 12 0 0.0 0.0 0.00 0.00 0.00 63 875.9
20260506170624 12 0 0.0 0.0 0.00 0.00 0.00 63 875.9
20260506170115 12 0 0.0 0.0 0.00 0.00 0.00 62 875.9
20260506165614 12 0 0.0 0.0 0.00 0.00 0.00 62 876.0
20260506165114 12 0 0.0 0.0 0.00 0.00 0.00 62 875.9
20260506164614 12 0 0.0 0.0 0.00 0.00 0.00 62 876.0
20260506164114 13 0 0.0 0.0 0.00 0.00 0.00 62 876.0
20260506163614 13 0 0.0 0.0 0.00 0.00 0.00 62 876.1
20260506163114 13 0 0.0 0.0 0.00 0.00 0.00 62 876.0
20260506162614 13 0 0.0 0.0 0.00 0.00 0.00 62 876.0
20260506162114 13 0 0.0 0.0 0.00 0.00 0.00 62 875.9
20260506161614 13 0 0.0 0.0 0.00 0.00 0.00 61 876.0
20260506161112 13 0 0.0 0.0 0.00 0.00 0.00 61 876.0
20260506160612 13 0 0.0 0.0 0.00 0.00 0.00 61 876.0
20260506160112 14 0 0.0 0.0 0.00 0.00 0.00 61 876.0
20260506155658 14 0 0.0 0.0 0.00 0.00 0.00 61 876.0
20260506155612 14 0 0.0 0.0 0.00 0.00 0.00 61 876.0
20260506155112 14 0 0.0 0.0 0.00 0.00 0.00 61 876.1
20260506154610 14 0 0.0 0.0 0.00 0.00 0.00 61 876.1
20260506154110 14 0 0.0 0.0 0.00 0.00 0.00 61 876.1
20260506153610 14 0 0.0 0.0 0.00 0.00 0.00 61 876.3
20260506153110 13 0 0.0 0.0 0.00 0.00 0.00 61 876.3
20260506152610 13 0 0.0 0.0 0.00 0.00 0.00 61 876.3
20260506152110 13 0 0.0 0.0 0.00 0.00 0.00 61 876.3
20260506151610 13 355 12.9 48.3 0.00 0.00 0.00 60 876.4
20260506151110 13 3 1.6 32.2 0.00 0.00 0.00 60 876.3
20260506150610 13 0 0.0 0.0 0.00 0.00 0.00 60 876.4
20260506150110 14 0 0.0 0.0 0.00 0.00 0.00 60 876.4
20260506145610 14 0 0.0 0.0 0.00 0.00 0.00 59 876.5
20260506145110 14 0 0.0 0.0 0.00 0.00 0.00 59 876.4
20260506144610 14 0 0.0 0.0 0.00 0.00 0.00 59 876.4
20260506144110 15 0 0.0 0.0 0.00 0.00 0.00 59 876.4
20260506143610 15 0 0.0 0.0 0.00 0.00 0.00 58 876.5
20260506143101 15 3 0.0 1.6 0.00 0.00 0.00 59 876.4
20260506142601 15 0 0.0 0.0 0.00 0.00 0.00 59 876.5
20260506142059 16 0 0.0 0.0 0.00 0.00 0.00 59 876.5
20260506141559 15 0 0.0 0.0 0.00 0.00 0.00 60 876.5
20260506141059 15 0 0.0 0.0 0.00 0.00 0.00 60 876.5
20260506140559 15 0 0.0 0.0 0.00 0.00 0.00 60 876.5
20260506140100 15 0 0.0 0.0 0.00 0.00 0.00 60 876.5
20260506135557 15 0 0.0 0.0 0.00 0.00 0.00 60 876.5
20260506135057 15 0 0.0 0.0 0.00 0.00 0.00 60 876.5
20260506134557 15 0 0.0 0.0 0.00 0.00 0.00 60 876.5
20260506134057 15 0 0.0 0.0 0.00 0.00 0.00 59 876.5
20260506133557 15 0 0.0 0.0 0.00 0.00 0.00 59 876.5
20260506133057 15 0 0.0 0.0 0.00 0.00 0.00 59 876.4
20260506132557 15 0 0.0 0.0 0.00 0.00 0.00 59 876.4
20260506132057 15 0 0.0 0.0 0.00 0.00 0.00 59 876.4
20260506131557 15 0 0.0 0.0 0.00 0.00 0.00 59 876.4
20260506131057 15 0 0.0 0.0 0.00 0.00 0.00 59 876.4
20260506130556 15 0 0.0 0.0 0.00 0.00 0.00 59 876.5
20260506130056 15 0 0.0 0.0 0.00 0.00 0.00 59 876.5
20260506125557 16 0 0.0 0.0 0.00 0.00 0.00 58 876.6
20260506125057 16 0 0.0 0.0 0.00 0.00 0.00 58 876.6
20260506124557 16 0 0.0 0.0 0.00 0.00 0.00 58 876.5
20260506124057 16 0 0.0 0.0 0.00 0.00 0.00 58 876.5
20260506123557 15 0 0.0 0.0 0.00 0.00 0.00 58 876.5
20260506123054 16 0 0.0 0.0 0.00 0.00 0.00 58 876.5
20260506122554 16 0 0.0 0.0 0.00 0.00 0.00 58 876.4
20260506122054 16 0 0.0 0.0 0.00 0.00 0.00 58 876.5
20260506121554 16 0 0.0 0.0 0.00 0.00 0.00 58 876.4
20260506121054 17 0 0.0 0.0 0.00 0.00 0.00 59 876.5
20260506120552 16 0 0.0 0.0 0.00 0.00 0.00 59 876.4
20260506120043 15 0 0.0 0.0 0.00 0.00 0.00 59 876.6
20260506115543 15 0 0.0 0.0 0.00 0.00 0.00 59 876.6
20260506115043 15 0 0.0 0.0 0.00 0.00 0.00 59 876.6
20260506114543 15 0 0.0 0.0 0.00 0.00 0.00 59 876.4
20260506114043 16 0 0.0 0.0 0.00 0.00 0.00 59 876.5
20260506113543 16 0 0.0 0.0 0.00 0.00 0.00 59 876.5
20260506113043 16 0 0.0 0.0 0.00 0.00 0.00 59 876.5
20260506112543 16 0 0.0 0.0 0.00 0.00 0.00 59 876.5
20260506112043 16 0 0.0 0.0 0.00 0.00 0.00 58 876.5
20260506111543 16 0 0.0 0.0 0.00 0.00 0.00 58 876.4
20260506111043 16 0 0.0 0.0 0.00 0.00 0.00 58 876.4
20260506110637 16 0 0.0 0.0 0.00 0.00 0.00 59 876.5
20260506110543 16 0 0.0 0.0 0.00 0.00 0.00 59 876.5
20260506110043 16 0 0.0 0.0 0.00 0.00 0.00 58 876.5
20260506105543 17 0 0.0 0.0 0.00 0.00 0.00 58 876.4
20260506105043 17 0 0.0 0.0 0.00 0.00 0.00 58 876.4
20260506104543 17 0 0.0 0.0 0.00 0.00 0.00 58 876.4
20260506104041 17 0 0.0 0.0 0.00 0.00 0.00 58 876.6
20260506103541 17 0 0.0 0.0 0.00 0.00 0.00 59 876.5
20260506103041 16 0 0.0 0.0 0.00 0.00 0.00 59 876.5
20260506102041 16 0 0.0 0.0 0.00 0.00 0.00 59 876.4
20260506101538 16 0 0.0 0.0 0.00 0.00 0.00 59 876.4
20260506101038 16 0 0.0 0.0 0.00 0.00 0.00 59 876.4
20260506100538 16 0 0.0 0.0 0.00 0.00 0.00 59 876.3
20260506100038 16 0 0.0 0.0 0.00 0.00 0.00 59 876.5
20260506095538 16 0 0.0 0.0 0.00 0.00 0.00 60 876.3
20260506095038 16 0 0.0 0.0 0.00 0.00 0.00 60 876.4
20260506094538 16 0 0.0 0.0 0.00 0.00 0.00 59 876.4
20260506094038 17 0 0.0 0.0 0.00 0.00 0.00 60 876.3
20260506093538 16 0 0.0 0.0 0.00 0.00 0.00 60 876.3
20260506093029 16 0 0.0 0.0 0.00 0.00 0.00 61 876.2
20260506092029 16 0 0.0 0.0 0.00 0.00 0.00 61 876.2
20260506091529 16 0 0.0 0.0 0.00 0.00 0.00 62 876.3
20260506091029 16 0 0.0 0.0 0.00 0.00 0.00 62 876.2
20260506090529 15 0 0.0 0.0 0.00 0.00 0.00 63 876.2
20260506090029 14 0 0.0 0.0 0.00 0.00 0.00 63 876.2
20260506085529 13 0 0.0 0.0 0.00 0.00 0.00 63 876.2
20260506085028 13 0 0.0 0.0 0.00 0.00 0.00 63 876.2
20260506084527 13 0 0.0 0.0 0.00 0.00 0.00 63 876.1
20260506084027 13 0 0.0 0.0 0.00 0.00 0.00 64 876.1
20260506083527 13 0 0.0 0.0 0.00 0.00 0.00 64 876.0
20260506083026 13 0 0.0 0.0 0.00 0.00 0.00 64 875.9
20260506082524 12 0 0.0 0.0 0.00 0.00 0.00 64 875.9
20260506082024 12 0 0.0 0.0 0.00 0.00 0.00 65 875.9
20260506081524 12 0 0.0 0.0 0.00 0.00 0.00 65 875.8
20260506081024 12 0 0.0 0.0 0.00 0.00 0.00 65 875.7
20260506080525 12 0 0.0 0.0 0.00 0.00 0.00 65 875.7
20260506073525 11 0 0.0 0.0 0.00 0.00 0.00 65 875.5
20260506073025 11 0 0.0 0.0 0.00 0.00 0.00 65 875.5
20260506072525 11 0 0.0 0.0 0.00 0.00 0.00 64 875.5
20260506072025 12 0 0.0 0.0 0.00 0.00 0.00 64 875.4
20260506071525 12 0 0.0 0.0 0.00 0.00 0.00 64 875.4
20260506071025 12 0 0.0 0.0 0.00 0.00 0.00 64 875.4
20260506070525 11 0 0.0 0.0 0.00 0.00 0.00 64 875.4
20260506062512 11 0 0.0 0.0 0.00 0.00 0.00 65 875.1
20260506062012 11 0 0.0 0.0 0.00 0.00 0.00 65 875.1
20260506061512 11 0 0.0 0.0 0.00 0.00 0.00 65 875.0
20260506061012 11 0 0.0 0.0 0.00 0.00 0.00 65 874.9
20260506060512 10 0 0.0 0.0 0.00 0.00 0.00 65 874.8
20260506051011 8 0 0.0 0.0 0.00 0.00 0.00 66 874.7
20260506050511 8 0 0.0 0.0 0.00 0.00 0.00 66 874.7
20260506045011 8 0 0.0 0.0 0.00 0.00 0.00 65 874.6
20260506044509 8 0 0.0 0.0 0.00 0.00 0.00 65 874.6
20260506044009 9 0 0.0 0.0 0.00 0.00 0.00 66 874.6
20260506043509 8 0 0.0 0.0 0.00 0.00 0.00 66 874.7
20260506043000 8 0 0.0 0.0 0.00 0.00 0.00 66 874.5
20260506042500 8 0 0.0 0.0 0.00 0.00 0.00 66 874.6
20260506042000 8 0 0.0 0.0 0.00 0.00 0.00 65 874.4
20260506041500 8 0 0.0 0.0 0.00 0.00 0.00 66 874.4
20260506041000 8 0 0.0 0.0 0.00 0.00 0.00 65 874.4
20260506040500 8 0 0.0 0.0 0.00 0.00 0.00 65 874.2
20260506040000 8 0 0.0 0.0 0.00 0.00 0.00 65 874.3
20260506035500 8 0 0.0 0.0 0.00 0.00 0.00 65 874.1
20260506035000 8 0 0.0 0.0 0.00 0.00 0.00 65 874.1
20260506034500 8 0 0.0 0.0 0.00 0.00 0.00 65 874.1
20260506034000 8 0 0.0 0.0 0.00 0.00 0.00 65 874.2
20260506033501 8 0 0.0 0.0 0.00 0.00 0.00 65 874.0
20260506033001 8 0 0.0 0.0 0.00 0.00 0.00 65 874.1
20260506032501 8 0 0.0 0.0 0.00 0.00 0.00 65 874.1
20260506031959 8 0 0.0 0.0 0.00 0.00 0.00 65 874.2
20260506031459 8 0 0.0 0.0 0.00 0.00 0.00 65 874.1
20260506030959 8 0 0.0 0.0 0.00 0.00 0.00 65 874.2
20260506030459 8 0 0.0 0.0 0.00 0.00 0.00 64 874.1
20260506025959 8 0 0.0 0.0 0.00 0.00 0.00 64 874.0
20260506025457 8 0 0.0 0.0 0.00 0.00 0.00 64 874.0
20260506024957 8 0 0.0 0.0 0.00 0.00 0.00 64 873.9
20260506024457 8 0 0.0 0.0 0.00 0.00 0.00 63 874.0
20260506023957 8 0 0.0 0.0 0.00 0.00 0.00 63 873.7
20260506023457 8 0 0.0 0.0 0.00 0.00 0.00 63 873.8
20260506022956 8 0 0.0 0.0 0.00 0.00 0.00 63 873.9
20260506022456 8 0 0.0 0.0 0.00 0.00 0.00 62 874.0
20260506021957 8 0 0.0 0.0 0.00 0.00 0.00 62 873.9
20260506021457 8 0 0.0 0.0 0.00 0.00 0.00 62 874.0
20260506020956 8 0 0.0 0.0 0.00 0.00 0.00 62 874.1
20260506020456 8 0 0.0 0.0 0.00 0.00 0.00 62 874.1
20260506015947 8 0 0.0 0.0 0.00 0.00 0.00 62 874.1
20260506015447 8 0 0.0 0.0 0.00 0.00 0.00 61 874.1
20260506014947 9 0 0.0 0.0 0.00 0.00 0.00 61 874.0
20260506014448 9 0 0.0 0.0 0.00 0.00 0.00 61 874.0
20260506013948 9 0 0.0 0.0 0.00 0.00 0.00 61 874.1
20260506013448 9 0 0.0 0.0 0.00 0.00 0.00 60 874.0
20260506012945 9 0 0.0 0.0 0.00 0.00 0.00 60 874.0
20260506012445 9 0 0.0 0.0 0.00 0.00 0.00 59 873.9
20260506011945 9 0 0.0 0.0 0.00 0.00 0.00 59 873.8
20260506011445 9 0 0.0 0.0 0.00 0.00 0.00 59 873.9
20260506010945 9 0 0.0 0.0 0.00 0.00 0.00 58 873.8
20260506010443 9 0 0.0 0.0 0.00 0.00 0.00 58 873.8
20260506005942 9 0 0.0 0.0 0.00 0.00 0.00 58 873.8
20260506005442 9 0 0.0 0.0 0.00 0.00 0.00 58 873.8
20260506004942 9 0 0.0 0.0 0.00 0.00 0.00 58 873.9
20260506004442 9 0 0.0 0.0 0.00 0.00 0.00 58 874.0
20260506003942 9 0 0.0 0.0 0.00 0.00 0.00 58 874.0
20260506003443 9 0 0.0 0.0 0.00 0.00 0.00 58 874.1
20260506002942 10 0 0.0 0.0 0.00 0.00 0.00 58 874.2
20260506002442 10 0 0.0 0.0 0.00 0.00 0.00 57 874.0
20260506001942 10 0 0.0 0.0 0.00 0.00 0.00 57 874.1
20260506001442 10 0 0.0 0.0 0.00 0.00 0.00 57 874.1
20260506000942 10 0 0.0 0.0 0.00 0.00 0.00 57 874.1
20260506000442 10 0 0.0 0.0 0.00 0.00 0.00 57 874.0
20260505235942 10 0 0.0 0.0 0.00 0.00 0.00 57 873.9
20260505235442 10 0 0.0 0.0 0.00 0.00 0.00 57 874.0
20260505234942 10 0 0.0 0.0 0.00 0.00 0.00 57 874.0
20260505234442 10 0 0.0 0.0 0.00 0.00 0.00 57 874.0
20260505233939 10 0 0.0 0.0 0.00 0.00 0.00 57 873.9
20260505233439 10 0 0.0 0.0 0.00 0.00 0.00 57 874.0
20260505232930 10 0 0.0 0.0 0.00 0.00 0.00 57 874.0
20260505232430 10 0 0.0 0.0 0.00 0.00 0.00 57 874.1
20260505231931 10 0 0.0 0.0 0.00 0.00 0.00 57 874.1
20260505231428 10 0 0.0 0.0 0.00 0.00 0.00 57 874.3
20260505230928 10 0 0.0 0.0 0.00 0.00 0.00 57 874.5
20260505230428 10 0 0.0 0.0 0.00 0.00 0.00 56 874.7
20260505225928 10 0 0.0 0.0 0.00 0.00 0.00 56 874.7
20260505225428 10 0 0.0 0.0 0.00 0.00 0.00 56 874.6
20260505224928 10 0 0.0 0.0 0.00 0.00 0.00 56 874.7
20260505224428 10 0 0.0 0.0 0.00 0.00 0.00 56 874.9
20260505223928 10 0 0.0 0.0 0.00 0.00 0.00 56 874.8
20260505223428 10 0 0.0 0.0 0.00 0.00 0.00 56 874.9
20260505222928 10 0 0.0 0.0 0.00 0.00 0.00 56 875.1
20260505222428 10 0 0.0 0.0 0.00 0.00 0.00 56 875.1
20260505221928 10 0 0.0 0.0 0.00 0.00 0.00 55 875.0
20260505221428 10 0 0.0 0.0 0.00 0.00 0.00 55 875.1
20260505220929 10 0 0.0 0.0 0.00 0.00 0.00 55 875.2
20260505220429 10 0 0.0 0.0 0.00 0.00 0.00 55 875.3
20260505220020 10 0 0.0 0.0 0.00 0.00 0.00 55 875.5
20260505215929 10 0 0.0 0.0 0.00 0.00 0.00 55 875.5
20260505215429 10 0 0.0 0.0 0.00 0.00 0.00 55 875.6
20260505214927 10 0 0.0 0.0 0.00 0.00 0.00 55 875.6
20260505214427 10 0 0.0 0.0 0.00 0.00 0.00 55 875.6
20260505213927 10 0 0.0 0.0 0.00 0.00 0.00 54 875.7
20260505213427 10 0 0.0 0.0 0.00 0.00 0.00 54 875.7
20260505212927 10 0 0.0 0.0 0.00 0.00 0.00 54 875.7
20260505212425 10 0 0.0 0.0 0.00 0.00 0.00 53 875.7
20260505211925 10 0 0.0 0.0 0.00 0.00 0.00 53 875.8
20260505211425 10 0 0.0 0.0 0.00 0.00 0.00 53 875.9
20260505210925 11 0 0.0 0.0 0.00 0.00 0.00 53 875.9
20260505210425 11 0 0.0 0.0 0.00 0.00 0.00 52 875.9
20260505205916 11 0 0.0 0.0 0.00 0.00 0.00 52 876.0